COSMOS 2219

Last updated on Sun Aug 09 2026 00:02:09 GMT+0000 (Coordinated Universal Time)

1 22219U 92076A 26220.60691672 .00000067 00000+0 59633-4 0 9991 2 22219 71.0582 60.4886 0019015 322.9386 37.0422 14.14101765739852
UTC large
Height (km)
Speed (km/s)
/
Latitude / Longitude
Inclination (degrees)
Orbital Period (minutes)
Azimuth
Elevation
Range (km)
Doppler Factor

Next 0 passes for location: London (51.5072 / 0.1276)

No passes found over London.
COSMOS 2219